ONEWEB-0374 (49300 NORAD) Tracking and Keplerian Element Data

This shows tracking and keplerian element data for the satellite.

Feedback or suggestion? Click here.




ElementValue
Catalog49300
NameONEWEB-0374
Epoch Orbit353
Epoch Day339.91667824
Epoch Year2021
RAAN275.0663
Inclination87.204
Eccentricity0.0010932
Argument of Perigee95.7069
Mean Anonmoly198.5162
Mean Motion14.88408896
Decay Rate-0.00052756
L11 49300U 21090X 21339.91667824 -.00052756 00000+0 -57402-2 0 9995
L22 49300 87.2040 275.0663 0010932 95.7069 198.5162 14.88408896 3538

Live tracking and technical data element details for ONEWEB-0374 (NORAD 49300). ONEWEB-0374 can be tracked NOW for your location showing map with azimuth and elevation plus other details from your city location.

Track the satellite on the map from your city or location and see movement details for azimuth, elevation, latitude, longitude, range, height, and movement on the map or in text.







IsCatalogInMostPopularTable: catalog: 49300, numindb: 4
Update: records affected: 1



GetName: 49300 ONEWEB-0374

Hit Count: updated at: Mon, 06 Dec 2021 15:09:01 GMT